カタログに戻る

COROT

運用中科学PO
NORAD 29678·PAYLOAD·🇫🇷 France

打ち上げ Dec 27, 2006 から Baikonur Cosmodrome

Loading…

次のパス (今後24時間)

TLE

最新Source: Space-Track

元期: Sep 14, 2026, 15:12 UTC

1 29678U 06063A   26257.63401385  .00001175  00000-0  23724-3 0  9994
2 29678  90.1063  38.2270 0185484 177.3035 182.9220 14.50510927 27941

AllMySatでCOROTをリアルタイム追跡

Download on the App Store